Regional Weather Roundup
Issued by NWS Wakefield, VA

Home | Current Version | Previous Version | Graphics & Text | Print | Product List | Glossary On
Versions: 1 2 3 4 5 6 7 8 9 10 11 12 13 14 15 16 17 18 19 20 21 22 23 24 25 26 27 28
000
ASUS41 KAKQ 231210
RWRAKQ

REGIONAL WEATHER ROUNDUP
NATIONAL WEATHER SERVICE WAKEFIELD VA
800 AM EDT WED APR 23 2014

Note: "fair" indicates few or no clouds below 12,000 feet with no
significant weather and/or obstructions to visibility. * = Denotes
station may not report precipitation (e.g., rain,snow,etc.),
thunder or fog.

VAZ042-051-052>054-056-231300-
NORTHERN VIRGINIA

CITY           SKY/WX    TMP DP  RH WIND       PRES   REMARKS
WASH NATIONAL  MOSUNNY   53  33  46 NW15G24   29.78R
DULLES         PTSUNNY   50  34  54 NW10      29.80R
FORT BELVOIR   SUNNY     53  33  47 NW10G18   29.80R
QUANTICO       CLOUDY    54  31  41 NW14G21   29.81R
FREDERICKSBRG* SUNNY     54  33  46 N12G20    29.80R
STAFFORD*      SUNNY     53  33  47 NW21G32   29.84R
WARRENTON      PTSUNNY   54  37  53 NW16G23   29.80R
CULPEPER*      MOSUNNY   54  30  40 N5        29.81R
MANASSAS*      CLOUDY    52  36  54 NW10      29.80R
LEESBURG*      PTSUNNY   50  36  57 N13G22    29.82R
WINCHESTER     CLOUDY    46  32  57 NW18G26   29.83R
$$

VAZ048-049-060>072-079>083-231300-
CENTRAL AND SOUTH CENTRAL VIRGINIA...AND NORTH CENTRAL NORTH CAROLINA

CITY           SKY/WX    TMP DP  RH WIND       PRES   REMARKS
RICHMOND       SUNNY     55  34  45 N12       29.77R
CHESTERFIELD*  NOT AVBL
HANOVER        SUNNY     53  35  50 NW8       29.79R
TAPPAHANNOCK*  SUNNY     55  27  34 NW8G23    29.75S
CHARLOTTSVILLE SUNNY     53  32  44 NW8       29.80R
ORANGE*        SUNNY     52  32  46 W14G20    29.81R
LOUISA*        SUNNY     52  36  54 N6        29.78R
FARMVILLE*     SUNNY     54  45  71 CALM      29.78R
SOUTH HILL*    MOSUNNY   55  52  88 CALM      29.84R
ROANOKE RAPIDS SUNNY     46  41  81 N7        29.78R
RALEIGH        MOSUNNY   59  38  45 VRB6      29.81R
$$

VAZ088>098-231300-
SOUTHEAST VIRGINIA

CITY           SKY/WX    TMP DP  RH WIND       PRES   REMARKS
NORFOLK        MOSUNNY   57  37  47 N17G25    29.74R
VIRGINIA BEACH MOSUNNY   57  41  55 N13G23    29.73R
NORFOLK NAVAL  MOSUNNY   58  38  47 NW16G23   29.76R
WEST POINT*    SUNNY     56  35  45 NW6       29.77R
NEWPORT NEWS   SUNNY     59  36  42 N15G23    29.75R
LANGLEY AFB    SUNNY     56  37  49 N14G24    29.75R
FORT EUSTIS    SUNNY     56  42  58 N9        29.74R
WILLIAMSBURG*  SUNNY     55  39  54 N9        29.77R
FRANKLIN*      SUNNY     57  45  62 N6        29.77R
WAKEFIELD      SUNNY     55  38  52 VRB7      29.77R
$$

VAZ020-022-025-037-045-231300-
WESTERN AND SOUTHWEST VIRGINIA

CITY           SKY/WX    TMP DP  RH WIND       PRES   REMARKS
STAUNTON*      SUNNY     47  28  46 NW15G24   29.83R
HOT SPRINGS VA PTSUNNY   37  28  70 W18G24    29.85R
LYNCHBURG      SUNNY     58  32  37 N7        29.83R
DANVILLE       SUNNY     56  35  45 NW8       29.83R
MARTINSVILLE     N/A     53  34  48 N8        29.88R
ROANOKE        MOSUNNY   50  30  46 NW10G21   29.88R
BLACKSBURG     MOSUNNY   45  36  70 W10G20    29.90R
DUBLIN*        MOSUNNY   43  32  64 NW13      29.91R
MARION*        SUNNY     44  29  55 W18G26    29.92R
HILLSVILLE*    SUNNY     45  21  39 NW14      29.90R
RICHLANDS*     SUNNY     44  33  66 W9        29.95R
WISE*          SUNNY     41  28  60 NW5       29.98R
ABINGDON*      SUNNY     47  29  51 W8        29.96R
$$

MDZ021>025-VAZ099-100-231300-
SOUTHERN MARYLAND AND THE DELMARVA PENINSULA

CITY           SKY/WX    TMP DP  RH WIND       PRES   REMARKS
PATUXENT RIVER MOSUNNY   53  35  50 NW23G32   29.73R
BAY BRIDGE APT SUNNY     50  34  53 NW18      29.76R
LEONARDTOWN    SUNNY     52  32  46 W15G22    29.77R
DOVER          SUNNY     51  36  55 NW17G24   29.66R
GEORGETOWN     SUNNY     53  34  48 NW16G25   29.69S
EASTON         MOSUNNY   54  37  54 NW20G29   29.78R
CAMBRIDGE      SUNNY     54  34  47 NW24G33   29.73R
SALISBURY      SUNNY     54  35  48 NW18G28   29.70R
OCEAN CITY     SUNNY     53  35  50 NW10G20   29.69S
WALLOPS ISLAND SUNNY     55  37  50 N13G22    29.71R
ACCOMACK*      SUNNY     54  32  43 NW16G28   29.72R
$$

NCZ012>017-030>032-231300-
EASTERN NORTH CAROLINA

CITY           SKY/WX    TMP DP  RH WIND       PRES   REMARKS
ELIZABETH CITY SUNNY     59  46  62 N16       29.73R
AHOSKIE*       SUNNY     57  49  75 N8        29.77R
EDENTON*       SUNNY     59  55  87 N7        29.74R
CURRITUCK*     SUNNY     58  40  49 N12G18    29.74R
KILL DEVIL HLS SUNNY     55  48  77 N12G17    29.71R
MANTEO         SUNNY     56  47  71 N16G22    29.72R
CAPE HATTERAS  MOSUNNY   59  50  72 N12G21    29.72R
GOLDSBORO      SUNNY     60  58  94 NW6       29.76R
WASHINGTON     SUNNY     60  56  84 NW6       29.75R
GREENVILLE     SUNNY     61  54  77 N5        29.80R
NEW BERN       SUNNY     64  56  75 NW5       29.76R
WILMINGTON     SUNNY     64  58  80 NW9       29.77R
$$

VAZ048-231300-
ELSEWHERE

CITY           SKY/WX    TMP DP  RH WIND       PRES   REMARKS
HARRISBURG PA  MOSUNNY   48  31  51 NW26G35   29.74R
BALTIMORE      MOSUNNY   50  33  52 NW15G23   29.77R
ANNAPOLIS      SUNNY     51  35  54 NW14G23   29.76R
ANDREWS AFB    SUNNY     50  33  51 NW16G29   29.78R
WILMINGTON DE  MOSUNNY   50  33  52 NW18G28   29.72R
PHILADELPHIA   MOSUNNY   51  31  46 NW23G33   29.69R
WILDWOOD NJ*   SUNNY     52  36  54 NW16G25   29.68S
ATLANTIC CITY  SUNNY     51  34  52 NW24G37   29.65R
HENDERSON NC   SUNNY     56  32  39 NW6       29.79R
GREENSBORO     MOSUNNY   57  33  40 NW10      29.83R
ROCKY MOUNT    SUNNY     61  48  62 N9        29.78R
FAYETTEVILLE   SUNNY     63  51  65 NW7       29.79R
CHARLOTTE      MOSUNNY   57  45  64 N9        29.85R
$$

VAZ100-231300-
MARINE

STATION/POSITION TIME  TEMP    WIND        PRES    WAVE   SWELL
                       AIR SEA DIR/SP/G            HT/PER HT/PER
                 (UTC) (F)     (DEG/KT/KT) (MB)    (FT/S) (FT/S)
44066 TX TWR #4  1200   47 45  280/ 19/ 23 1000.5R   5/ 4   3/ 9
CAPE MAY NJ      1200   51 55  330/ 23/ 31 1004.5F
LEWES DE         1200   51 51  320/ 19/ 24 1004.5R
15NM E FENWICK I 1200   50 47              1005.0R   5/ 5
OCEAN-CITY-INLET 1200   51 48  340/ 11/ 17 1005.1S
WACHAPREAGUE VA  1200   55 59  330/  5/ 10 1005.8R
THOMAS POINT MD  1200   51 53  310/ 21/ 24 1008.1R
GOOSES REEF MD   1200   52     330/ 21/ 27   N/A
COVE POINT MD    1200   52     330/ 19/ 26 1007.0R
SOLOMONS ISLAND  1200      55                N/A
BISHOPS HEAD MD  1200   53 56  330/ 13/ 23 1005.9F
PINEY POINT MD   1200          350/ 34/ 42   N/A
POTOMAC MD       1200   54     330/ 17/ 23 1006.1S
CAMBRIDGE MD     1200   53 57  310/ 25/ 31 1006.4R
LEWISETTA VA     1200   54 57  330/ 18/ 30 1007.0R
RAPPAHANNOCK LGT 1200          330/ 22/ 24 1006.9R
STINGRAY PT      1200   55     350/ 17/ 21 1006.8R
YORK RVR RNG VA  1200   55     360/ 18/ 20 1006.0R
YORKTOWN VA      1200   55 57  330/ 12/ 15 1007.0R
JAMESTOWN VA     1200   55     350/  8/ 14   N/A
DOMINION TERM VA 1200   57      60/  3/  8 1007.1R
KIPTOPEKE VA     1200      55  360/ 18/ 23   N/A
CHES BAY BRIDGE  1200   56 54  330/ 22/ 25 1006.7R
CAPE HENRY VA    1200   55     330/ 16/ 21   N/A
CHESAPEAKE LGHT  1100   53     350/ 21/ 23 1006.0R
WILLOUBY STN VA  1200   56     350/ 15/ 17 1006.2R
S CRANEY ISL VA  1200          320/ 10/ 14 1007.2R
CAPE HENRY BUOY  1200      48                N/A     4/10   2/11
1ST LANDING BUOY 1200      47                N/A     3/ 9   2/ 9
64NM E OF VA BCH 1200   52 49  350/ 16/ 19 1005.3R   4/ 8   3/ 8
DUCK PIER NC     1200   52 48  350/ 13/ 14 1005.3R
44100 DUCK FRF   1200      49                N/A     3/ 8
44056 DUCK FRF   1200      49                N/A     3/ 8
OREGON INLET NC  1200   54 54  350/ 12/ 18 1006.1S
HATTERAS NC      1200   61 58   10/ 14/ 18 1006.4R
DIAMOND SHLS NC  1200   66 75  330/ 23/ 29 1005.2R   5/ 8   3/ 8
CAPE LOOKOUT NC  1100   61     270/ 12/ 13 1005.9R
FRYING PAN SHLS  1200   65 67  280/ 16/ 17 1007.9R   3/ 6   2/ 8
$$



USA.gov is the U.S. government's official web portal to all federal, state and local government web resources and services.